[[{"header":{"parameterUnit":"m.s-1","parameterCategory":1,"la1":30.2991,"la2":30.254,"lo1":-89.0895,"lo2":-89.0444,"dy":0.0017,"dx":0.0017,"nx":28,"ny":28,"refTime":"2025-08-27T09:00:00:Z","depth":0,"parameterNumber":2,"parameterNumberName":"U-component_of_WINDS"},"data":[0,0,0,0,0,0,0,0,0,0,0,0,0,0,0,0,0,0,0,0,0,0,0,0,0,0,0,0,0,0,0,0,0,0,0,0,0,0,0,0,0,0,0,0,0,0,0,0,0,0,0,0,0,0,0,0,0,0,-0.1972,-0.1972,0,-0.193,-0.193,-0.1929,-0.1836,-0.1834,-0.1832,-0.183,-0.179,-0.1791,-0.1792,0,0,0,0,0,0,0,0,0,0,0,0,0,-0.1975,-0.1975,-0.1972,-0.1972,-0.1971,-0.193,-0.193,-0.1929,-0.1836,-0.1834,-0.1831,-0.1829,-0.179,-0.1791,-0.1792,0,0,0,0,0,0,0,0,0,0,0,0,0,-0.1958,-0.1975,-0.1972,-0.192,-0.1915,-0.193,-0.193,-0.1929,-0.1836,-0.1834,-0.1831,-0.1828,-0.179,-0.1791,-0.1792,-0.1856,0,0,-0.1795,-0.1796,0,0,0,0,0,0,0,0,-0.1959,-0.1958,-0.1928,-0.1923,-0.1918,-0.1885,-0.1916,-0.1905,-0.1837,-0.1866,-0.183,-0.1827,-0.1824,-0.1822,-0.1821,-0.1854,-0.1853,-0.1795,-0.1796,-0.1796,-0.1797,0,0,0,0,0,0,0,-0.196,-0.1959,-0.1956,-0.1928,-0.1921,-0.1899,-0.1893,-0.1913,-0.1862,-0.1864,-0.1857,-0.1853,-0.1821,-0.182,-0.1819,-0.1852,-0.1795,-0.1796,-0.1797,-0.1797,-0.1937,-0.194,0,0,0,0,0,0,-0.1968,-0.196,-0.1957,-0.1954,-0.1931,-0.1901,-0.1895,-0.1899,-0.1862,-0.1853,-0.1855,-0.1849,-0.182,-0.1818,-0.1818,-0.1892,-0.1796,-0.1797,-0.1798,-0.1934,-0.1938,-0.1941,0,0,0,0,0,0,-0.1969,-0.1969,-0.1959,-0.1955,-0.1952,-0.1904,-0.1909,-0.1899,-0.1898,-0.1855,-0.1846,-0.1864,-0.1817,-0.1816,-0.1847,-0.1889,-0.1798,-0.1799,-0.1931,-0.1935,-0.194,-0.204,0,0,0,0,0,0,-0.1969,-0.197,-0.1993,-0.1957,-0.1953,-0.1989,-0.1912,-0.1901,-0.19,-0.1891,-0.1861,-0.1853,-0.1815,-0.1846,-0.1848,-0.1889,-0.18,-0.1927,-0.1933,-0.1938,-0.2033,-0.2047,-0.206,0,0,0,0,0,-0.197,-0.2023,-0.1995,-0.1995,-0.1981,-0.1991,-0.1989,-0.1943,-0.1904,-0.1927,-0.19,-0.1854,-0.1884,-0.185,-0.1852,-0.1893,-0.1924,-0.1931,-0.1938,-0.2027,-0.2044,-0.206,0,0,0,0,0,0,-0.2067,-0.2018,-0.1985,-0.2029,-0.2015,-0.1975,-0.2004,-0.1964,-0.1962,-0.1953,-0.1897,-0.1891,-0.1931,-0.1915,-0.1878,-0.1954,-0.1896,-0.1904,-0.1963,-0.198,-0.1993,-0.1997,-0.1801,0,0,0,0,0,-0.2093,-0.2105,-0.2061,-0.2104,-0.2098,-0.2053,-0.2055,-0.2021,-0.2005,-0.1999,-0.1973,-0.196,-0.1966,-0.1972,-0.1975,-0.2029,-0.2022,-0.2058,-0.2072,-0.2083,-0.2091,-0.212,-0.2136,-0.1964,-0.1964,-0.1964,0,0,-0.2149,-0.2123,-0.2134,-0.2123,-0.2108,-0.2122,-0.2048,-0.2066,-0.2077,-0.2002,-0.203,-0.2011,-0.1993,-0.2036,-0.2054,-0.2024,-0.2137,-0.2092,-0.2102,-0.2103,-0.2129,-0.2145,-0.216,-0.1969,-0.1968,-0.1967,0,0,-0.2256,-0.2237,-0.2271,-0.2258,-0.2236,-0.2205,-0.2213,-0.2179,-0.2164,-0.2191,-0.2135,-0.2147,-0.2158,-0.2148,-0.2144,-0.2248,-0.2206,-0.225,-0.2322,-0.2351,-0.2364,-0.2376,-0.2415,-0.2429,-0.2258,-0.2258,-0.2258,0,-0.2328,-0.2346,-0.2294,-0.2315,-0.2313,-0.2244,-0.2279,-0.2268,-0.225,-0.225,-0.2216,-0.223,-0.2212,-0.2253,-0.2278,-0.2277,-0.2286,-0.2255,-0.2366,-0.2378,-0.2388,-0.2424,-0.2439,-0.2264,-0.2263,-0.2263,-0.2262,0,-0.2436,-0.2449,-0.2479,-0.2462,-0.2462,-0.249,-0.2444,-0.245,-0.2416,-0.2389,-0.2418,-0.2395,-0.2393,-0.2399,-0.2366,-0.2436,-0.2418,-0.2376,-0.2317,-0.2411,-0.2444,-0.2457,-0.2272,-0.227,-0.2268,-0.2267,0,0,-0.2605,-0.2558,-0.257,-0.2561,-0.2532,-0.2542,-0.2567,-0.2564,-0.2572,-0.256,-0.2581,-0.2593,-0.2554,-0.255,-0.2515,-0.2539,-0.2625,-0.2495,-0.2493,-0.2521,-0.2702,-0.2735,-0.2752,-0.2596,-0.2599,-0.26,-0.2704,0,-0.2708,-0.2747,-0.2701,-0.2751,-0.2764,-0.2698,-0.272,-0.2706,-0.2681,-0.2689,-0.2661,-0.2671,-0.2618,-0.2615,-0.2637,-0.261,-0.2661,-0.2602,-0.2617,-0.2618,-0.2626,-0.2769,-0.2803,-0.2902,-0.2716,-0.2718,-0.272,0,-0.2832,-0.2826,-0.2878,-0.2845,-0.2849,-0.2869,-0.2863,-0.2871,-0.2853,-0.2833,-0.2829,-0.2786,-0.281,-0.2751,-0.2784,-0.2745,-0.2748,-0.2736,-0.2739,-0.274,-0.2676,-0.2776,-0.2932,-0.2948,-0.274,-0.2738,-0.2737,0,-0.2953,-0.2958,-0.2989,-0.2983,-0.2946,-0.2962,-0.2948,-0.2926,-0.2928,-0.2922,-0.2923,-0.2921,-0.292,-0.292,-0.2879,-0.284,-0.2918,-0.2855,-0.2904,-0.2905,-0.2925,-0.2925,-0.3086,-0.2924,-0.2924,-0.2923,-0.2923,0,-0.3073,-0.3108,-0.3043,-0.3062,-0.3099,-0.3046,-0.3084,-0.3063,-0.3045,-0.306,-0.3003,-0.3019,-0.2962,-0.2972,-0.294,-0.2973,-0.2973,-0.2959,-0.2951,-0.2965,-0.2968,-0.2968,-0.2961,-0.2927,-0.2926,-0.2926,-0.2925,0,-0.3215,-0.3173,-0.3203,-0.3164,-0.3156,-0.3185,-0.3152,-0.317,-0.3141,-0.3161,-0.3163,-0.3118,-0.3127,-0.3085,-0.3087,-0.3065,-0.3116,-0.3094,-0.3122,-0.3116,-0.3168,-0.3164,-0.3337,-0.3358,-0.3181,-0.3183,-0.3184,0,-0.3295,-0.332,-0.3284,-0.329,-0.3278,-0.3288,-0.3288,-0.3237,-0.324,-0.3221,-0.3241,-0.3245,-0.3246,-0.3264,-0.3232,-0.3234,-0.3214,-0.3274,-0.3214,-0.3228,-0.3217,-0.3217,-0.322,-0.3288,-0.329,-0.3291,-0.3293,0,-0.3443,-0.3421,-0.3423,-0.3419,-0.3422,-0.3416,-0.3407,-0.3415,-0.3359,-0.3366,-0.3374,-0.3374,-0.3376,-0.3381,-0.3376,-0.3362,-0.332,-0.3312,-0.3323,-0.334,-0.3356,-0.335,-0.3158,-0.3309,-0.3307,-0.3306,-0.3305,-0.3304,-0.3558,-0.3577,-0.3555,-0.356,-0.3547,-0.354,-0.3555,-0.3527,-0.3532,-0.3529,-0.3498,-0.3513,-0.3494,-0.3483,-0.3473,-0.3485,-0.3456,-0.3473,-0.3477,-0.3483,-0.3493,-0.3352,-0.3483,-0.3483,-0.3482,-0.3482,-0.3481,0,-0.3704,-0.3686,-0.3692,-0.368,-0.3684,-0.3641,-0.3629,-0.3636,-0.3649,-0.3635,-0.3636,-0.3646,-0.3651,-0.362,-0.3621,-0.3637,-0.3617,-0.3639,-0.3638,-0.3636,-0.3517,-0.3508,-0.3655,-0.3655,-0.3655,-0.3655,-0.3655,-0.3655,-0.3781,-0.3812,-0.3787,-0.3812,-0.3794,-0.3806,-0.3803,-0.3797,-0.3785,-0.3799,-0.3802,-0.3781,-0.3761,-0.376,-0.3763,-0.3754,-0.3758,-0.3787,-0.3772,-0.3661,-0.3644,-0.3629,-0.362,-0.3788,-0.3788,-0.389,-0.3891,-0.3892]},{"header":{"parameterUnit":"m.s-1","parameterCategory":1,"la1":30.2991,"la2":30.254,"lo1":-89.0895,"lo2":-89.0444,"dy":0.0017,"dx":0.0017,"nx":28,"ny":28,"refTime":"2025-08-27T09:00:00:Z","depth":0,"parameterNumber":3,"parameterNumberName":"V-component_of_WINDS"},"data":[0,0,0,0,0,0,0,0,0,0,0,0,0,0,0,0,0,0,0,0,0,0,0,0,0,0,0,0,0,0,0,0,0,0,0,0,0,0,0,0,0,0,0,0,0,0,0,0,0,0,0,0,0,0,0,0,0,0,1.2275,1.2275,0,1.2287,1.2287,1.2287,1.2287,1.2287,1.2287,1.2287,1.2298,1.2298,1.2299,0,0,0,0,0,0,0,0,0,0,0,0,0,1.2249,1.225,1.2275,1.2275,1.2275,1.2287,1.2287,1.2287,1.2287,1.2287,1.2287,1.2287,1.2298,1.2298,1.2299,0,0,0,0,0,0,0,0,0,0,0,0,0,1.2261,1.225,1.2275,1.2277,1.2277,1.2287,1.2287,1.2287,1.2288,1.2287,1.2287,1.2287,1.2298,1.2298,1.2299,1.2307,0,0,1.2301,1.2301,0,0,0,0,0,0,0,0,1.226,1.2262,1.2276,1.2277,1.2277,1.2285,1.2282,1.2294,1.2288,1.2284,1.2287,1.2287,1.2294,1.2295,1.2297,1.2308,1.2308,1.2301,1.2301,1.2302,1.2302,0,0,0,0,0,0,0,1.2259,1.2261,1.2279,1.2276,1.2277,1.2276,1.2277,1.2284,1.229,1.2284,1.2284,1.2285,1.2294,1.2297,1.2298,1.2308,1.2301,1.2301,1.2302,1.2302,1.2323,1.2323,0,0,0,0,0,0,1.2259,1.2261,1.2279,1.228,1.2268,1.2277,1.2278,1.2283,1.229,1.229,1.2286,1.2285,1.2296,1.2297,1.2298,1.2307,1.2302,1.2302,1.2302,1.2323,1.2323,1.2323,0,0,0,0,0,0,1.2258,1.226,1.2279,1.227,1.2273,1.2277,1.2283,1.2283,1.2286,1.2291,1.2292,1.2288,1.2296,1.2297,1.2304,1.2307,1.2302,1.2303,1.2323,1.2323,1.2323,1.2325,0,0,0,0,0,0,1.2257,1.226,1.2264,1.227,1.2273,1.2286,1.2283,1.2284,1.2287,1.2287,1.2293,1.2294,1.2296,1.2303,1.2305,1.2308,1.2303,1.2322,1.2323,1.2323,1.2325,1.2325,1.2326,0,0,0,0,0,1.2256,1.2264,1.2264,1.2266,1.2278,1.2286,1.2287,1.229,1.2288,1.2291,1.2294,1.2294,1.2307,1.2304,1.2306,1.2309,1.2322,1.2323,1.2323,1.2324,1.2325,1.2326,0,0,0,0,0,0,1.2258,1.2265,1.2265,1.2275,1.228,1.2286,1.229,1.2291,1.2296,1.2295,1.2297,1.2299,1.2305,1.2308,1.2305,1.2316,1.2314,1.2315,1.2314,1.2315,1.2316,1.2315,1.2304,0,0,0,0,0,1.226,1.2266,1.2271,1.228,1.2282,1.2286,1.2289,1.229,1.2295,1.2297,1.23,1.2304,1.2309,1.2312,1.2317,1.2325,1.2325,1.2328,1.2328,1.2329,1.2329,1.2332,1.2332,1.2325,1.2325,1.2325,0,0,1.2263,1.2267,1.2271,1.228,1.2284,1.2289,1.2287,1.2294,1.2297,1.2298,1.2305,1.2307,1.2311,1.2318,1.2322,1.2321,1.2331,1.2329,1.2329,1.233,1.2332,1.2333,1.2334,1.2325,1.2325,1.2325,0,0,1.2272,1.2276,1.2283,1.2286,1.2292,1.2294,1.2295,1.2301,1.2302,1.2309,1.2309,1.2313,1.2322,1.2324,1.2327,1.2334,1.2334,1.2335,1.2338,1.2341,1.2341,1.2342,1.2343,1.2344,1.2336,1.2336,1.2336,0,1.2275,1.2284,1.2286,1.2292,1.2295,1.2295,1.2301,1.2304,1.2311,1.2313,1.2312,1.2321,1.2324,1.2331,1.2333,1.2335,1.2336,1.2335,1.2341,1.2342,1.2342,1.2344,1.2344,1.2336,1.2336,1.2336,1.2336,0,1.2287,1.2293,1.2297,1.2303,1.2307,1.2313,1.2315,1.2318,1.2319,1.232,1.2326,1.233,1.2334,1.2336,1.2337,1.2343,1.2342,1.2341,1.2339,1.2343,1.2344,1.2345,1.2336,1.2336,1.2336,1.2336,0,0,1.2298,1.2304,1.2306,1.2307,1.2313,1.2317,1.2322,1.2326,1.2329,1.2333,1.2336,1.2342,1.2341,1.2344,1.2345,1.2347,1.2351,1.2345,1.2346,1.2346,1.2356,1.2356,1.2357,1.235,1.2351,1.2351,1.2355,0,1.2306,1.2316,1.2317,1.2325,1.233,1.2329,1.2333,1.2336,1.2338,1.2341,1.2342,1.2346,1.2345,1.2346,1.2348,1.235,1.2353,1.235,1.2353,1.2353,1.2351,1.2358,1.2358,1.2363,1.2356,1.2356,1.2356,0,1.2318,1.2322,1.233,1.2333,1.2335,1.2339,1.2342,1.2346,1.2348,1.2349,1.2351,1.2351,1.2355,1.2353,1.2357,1.2355,1.2356,1.2357,1.2357,1.2357,1.2355,1.2357,1.2364,1.2364,1.2357,1.2357,1.2357,0,1.2323,1.2331,1.2336,1.2338,1.2342,1.2344,1.2346,1.2348,1.235,1.2353,1.2354,1.2357,1.2359,1.2361,1.2361,1.236,1.2365,1.2363,1.2365,1.2365,1.2367,1.2366,1.2373,1.2368,1.2368,1.2368,1.2368,0,1.2332,1.2337,1.2339,1.2342,1.2347,1.2348,1.2352,1.2354,1.2356,1.2358,1.2358,1.236,1.2361,1.2363,1.2363,1.2367,1.2367,1.2367,1.2367,1.2367,1.2367,1.2368,1.2368,1.2368,1.2368,1.2368,1.2368,0,1.234,1.2341,1.2347,1.235,1.235,1.2354,1.2355,1.2358,1.2359,1.2362,1.2363,1.2364,1.2367,1.2367,1.237,1.237,1.2374,1.2373,1.2373,1.2373,1.2374,1.2374,1.2381,1.2382,1.2377,1.2377,1.2377,0,1.2345,1.2349,1.2351,1.2353,1.2355,1.2358,1.236,1.236,1.2362,1.2365,1.2367,1.2369,1.2371,1.2375,1.2375,1.2377,1.2377,1.2379,1.2377,1.2376,1.2376,1.2375,1.2375,1.2379,1.238,1.238,1.238,0,1.2354,1.2354,1.2357,1.236,1.2362,1.2364,1.2366,1.2368,1.2368,1.237,1.2372,1.2374,1.2377,1.2379,1.238,1.2381,1.238,1.238,1.2381,1.238,1.238,1.2379,1.2373,1.238,1.238,1.238,1.238,1.238,1.236,1.2363,1.2364,1.2367,1.2369,1.237,1.2372,1.2373,1.2375,1.2378,1.2377,1.238,1.2381,1.2383,1.2384,1.2385,1.2384,1.2385,1.2385,1.2385,1.2385,1.238,1.2385,1.2385,1.2385,1.2385,1.2385,0,1.2368,1.2369,1.2372,1.2374,1.2376,1.2375,1.2377,1.2378,1.238,1.2381,1.2383,1.2385,1.2387,1.2387,1.2388,1.2389,1.2389,1.239,1.2389,1.2389,1.2386,1.2385,1.239,1.239,1.239,1.239,1.239,1.239,1.2373,1.2376,1.2376,1.238,1.2381,1.2384,1.2384,1.2385,1.2386,1.2389,1.239,1.239,1.239,1.2392,1.2393,1.2393,1.2393,1.2394,1.2393,1.239,1.239,1.2389,1.2388,1.2394,1.2394,1.2396,1.2396,1.2396]}]]